Vorticity
10 8 8 2 -2 8 7 5 7 4 5 6 5 2 1 4 5 5 6 6 3 6 10 7 5 7 7 0 4 7 1 4 5 5 6 5 7 6 6 5 3 4 4 5 5 5 5 5 5 5 6 6 4 5 5 5 5 5 5 4 4 5 5 6 6 6 5 3 4 5 5 5 7 8 8 6 5 5 4 6 6 5 5 4 5 5 6 7 6 7 7 6 6 7 8 7 8
8 8 8 0 -1 13 7 3 5 1 5 10 7 2 3 6 5 5 5 6 5 6 6 5 7 8 8 8 10 8 5 7 6 6 5 4 6 6 6 5 5 4 4 4 5 5 5 5 5 5 6 5 4 4 4 4 5 4 4 4 5 5 5 5 5 5 5 4 4 5 4 5 7 8 7 5 5 5 5 5 6 5 4 4 4 5 5 7 7 7 7 7 7 7 6 7 10
6 5 7 5 7 13 6 4 4 2 8 8 4 4 4 4 4 5 5 5 5 6 7 6 7 7 9 11 8 7 7 5 4 6 5 3 4 5 5 6 6 4 5 4 4 5 5 6 6 6 5 5 5 4 4 4 4 4 4 4 5 5 6 6 6 5 5 5 4 4 5 4 7 9 6 6 5 5 6 6 5 4 4 4 3 5 5 7 7 7 8 7 8 7 6 9 9
5 4 6 6 11 10 5 8 7 6 6 3 5 6 3 4 5 5 5 6 6 6 7 5 5 8 11 9 7 8 6 5 4 5 5 4 5 6 6 6 6 5 6 6 5 5 5 6 7 7 7 7 7 7 7 7 6 6 6 5 6 6 7 8 7 7 6 6 5 5 6 4 6 8 6 5 5 5 6 6 5 4 4 5 4 4 4 5 6 8 9 7 7 6 8 10 6
3 5 4 4 16 14 7 6 6 6 4 8 11 6 4 5 4 4 6 6 6 5 5 6 8 10 9 7 7 7 5 6 5 4 7 6 7 7 6 7 6 7 6 6 6 5 6 6 7 7 7 7 7 8 9 10 11 11 11 10 10 8 9 9 7 7 7 6 6 6 6 6 5 7 7 4 4 6 7 6 5 4 4 6 6 4 4 3 5 9 9 7 7 7 9 9 4
3 4 4 7 13 11 13 8 2 5 7 10 6 1 5 5 3 5 5 5 6 6 6 9 10 7 6 6 6 6 6 7 5 5 9 6 7 7 7 8 6 7 6 6 6 6 6 6 7 8 9 10 9 10 11 12 13 12 13 12 11 11 11 10 8 8 7 6 6 5 6 6 6 7 7 5 4 5 6 6 6 5 4 7 7 6 5 3 6 10 8 6 6 8 10 6 3
3 0 4 8 6 14 24 13 1 4 8 4 -2 1 4 5 5 5 4 5 7 5 5 7 8 7 7 5 6 8 6 7 7 5 8 8 7 6 7 8 7 7 6 6 6 7 7 8 9 10 10 11 11 11 11 10 10 11 11 11 11 12 12 11 11 10 8 7 6 5 5 6 7 8 7 5 5 4 3 4 6 6 4 7 7 6 7 5 7 9 7 5 6 9 9 4 3
3 -0 2 6 7 18 29 21 7 3 5 1 0 6 4 5 6 4 5 4 4 3 4 5 6 6 7 7 8 8 5 6 8 7 9 9 6 5 6 7 7 6 6 6 6 8 8 10 9 10 9 8 8 8 8 7 7 8 7 8 9 10 12 13 13 13 10 7 7 6 4 5 7 7 6 5 5 5 4 3 5 6 5 6 7 7 8 7 8 9 6 5 7 10 7 3 4
4 4 0 5 7 12 32 32 11 3 2 -0 5 7 4 8 6 1 3 4 4 6 4 5 7 6 7 9 8 6 4 5 6 8 9 7 6 7 7 5 6 6 5 7 7 8 9 9 8 8 7 5 6 6 7 6 6 6 6 6 7 8 8 10 13 14 14 10 9 7 5 4 6 6 4 5 5 6 5 4 4 5 6 6 8 10 9 8 9 8 5 5 10 10 4 3 3
3 7 2 3 4 8 37 33 4 5 1 -2 5 5 6 8 6 2 3 5 5 6 4 4 7 6 6 6 6 6 3 5 5 7 7 6 7 8 7 5 5 6 5 7 8 8 7 7 7 6 6 6 6 7 9 8 8 8 9 8 7 8 7 7 9 11 13 12 10 9 8 7 7 5 3 5 6 7 6 5 4 4 7 7 10 13 10 9 9 7 5 7 10 8 3 4 3
-1 5 8 6 4 6 32 31 6 3 0 -0 3 3 7 4 5 7 4 6 5 4 3 2 6 5 6 5 5 6 4 5 6 6 7 5 6 7 7 6 4 4 5 6 7 6 6 6 6 5 5 6 7 7 9 9 9 8 8 8 9 9 8 8 8 9 12 12 11 11 12 9 10 8 4 6 7 7 6 6 6 5 7 9 10 10 10 9 8 5 5 9 9 5 3 4 3
-1 -2 4 7 10 10 22 31 14 -2 1 4 1 5 8 5 5 7 5 5 4 4 4 4 6 5 4 6 8 8 5 5 5 5 7 6 4 6 7 5 3 4 4 5 6 6 7 6 5 5 5 6 8 8 8 8 8 9 8 8 9 10 8 7 8 10 12 11 9 11 12 9 10 11 7 5 5 6 6 6 7 7 9 12 11 8 9 10 6 4 6 10 8 3 4 4 3
4 -2 -4 -0 8 11 16 29 17 -2 5 5 -0 7 9 9 5 5 7 3 3 3 5 6 4 6 5 8 10 8 5 2 5 5 5 7 5 6 7 5 5 5 5 6 7 6 6 6 5 5 6 5 7 7 7 8 8 8 9 9 8 9 10 9 9 11 11 11 9 9 12 12 10 11 9 8 7 6 6 7 7 10 11 12 12 9 10 9 4 5 8 9 5 3 4 3 3
5 4 -4 -3 4 8 14 26 21 4 6 5 -5 4 11 12 7 8 8 -0 6 4 2 7 4 5 6 7 6 5 7 4 5 5 5 9 8 7 8 6 6 5 4 6 6 5 6 8 7 6 7 7 7 7 8 7 7 8 9 9 9 9 11 13 10 9 10 10 8 7 10 11 11 11 10 12 12 8 9 9 8 12 11 9 11 11 10 8 4 6 9 7 4 4 4 3 4
3 7 -1 2 8 7 10 15 25 14 0 3 -3 1 10 11 8 6 4 2 6 2 3 8 4 4 5 6 4 3 9 6 5 5 7 10 7 7 8 6 6 6 5 5 6 7 8 7 7 7 9 8 7 7 7 8 8 9 10 9 10 10 11 13 11 9 11 10 9 10 9 9 10 11 10 12 11 9 13 13 10 12 10 8 12 11 9 6 4 8 9 5 3 4 3 4 5
2 7 -1 4 8 4 9 9 27 24 -3 4 6 2 5 5 10 7 2 6 5 2 6 5 3 5 4 6 6 5 7 7 6 6 7 7 6 6 6 6 6 7 7 7 7 8 7 6 7 9 9 8 11 12 10 9 9 9 9 8 9 11 12 13 11 11 12 10 11 13 10 10 11 10 10 11 13 14 16 13 12 12 9 11 13 10 7 4 5 9 8 3 3 4 3 5 5
5 7 -3 1 4 3 8 4 24 28 1 5 8 3 3 1 10 8 1 5 5 3 5 4 5 7 4 6 8 5 7 7 6 6 6 5 6 7 5 6 7 7 7 5 3 5 8 7 7 8 8 10 12 11 9 7 8 9 9 9 9 10 12 11 11 13 12 10 13 13 10 11 10 8 10 13 14 14 13 11 11 11 10 12 11 8 5 4 7 10 6 3 3 3 4 5 5
11 9 1 -0 -0 5 6 -2 14 27 12 4 4 4 2 2 9 8 4 4 4 2 4 5 6 7 4 8 9 5 8 7 5 6 6 6 6 6 5 5 7 7 6 5 4 6 9 7 7 8 8 10 6 3 6 7 8 10 8 8 9 9 10 10 11 12 12 13 13 12 11 11 10 8 11 13 12 11 12 11 10 11 11 11 9 6 4 5 10 8 3 3 4 3 5 5 5
11 5 5 1 -4 6 8 -1 5 21 25 6 -0 6 0 4 8 7 8 4 3 4 3 2 4 9 6 6 8 5 7 7 5 6 6 7 6 5 6 4 6 8 6 6 7 8 9 7 7 8 8 7 6 7 9 10 8 7 5 5 7 9 10 9 9 7 8 11 12 13 13 14 13 11 11 12 11 11 14 14 12 11 11 10 7 5 4 7 10 6 3 3 3 4 5 5 5
9 4 5 4 1 8 4 -1 4 19 31 11 1 7 0 3 8 5 5 3 6 5 4 5 5 8 7 4 6 6 8 8 7 7 7 7 6 6 7 3 4 8 8 6 6 8 9 7 8 8 7 7 9 10 7 8 8 6 5 6 8 9 9 10 10 9 9 10 12 14 15 16 16 15 14 13 11 12 16 16 13 11 10 8 5 4 6 9 8 4 3 3 4 5 5 4 5
6 7 4 3 5 7 1 -0 10 21 24 12 5 6 0 2 6 5 5 7 9 5 7 8 1 4 8 5 5 7 8 9 8 8 7 6 6 7 6 4 5 8 8 7 7 8 7 8 10 7 6 8 9 7 5 7 10 8 6 7 8 9 9 10 10 11 13 13 13 13 15 17 17 17 17 15 13 13 14 13 11 10 8 6 4 5 8 8 6 3 3 3 5 5 4 4 6
4 7 3 3 5 6 3 -0 13 22 13 9 10 7 0 1 6 7 6 8 9 6 7 7 1 5 9 5 4 6 8 9 7 8 6 4 6 7 6 5 6 8 6 7 7 7 7 7 8 7 7 8 7 6 6 8 11 8 7 8 8 9 9 10 9 9 12 12 12 13 14 16 17 18 17 17 14 12 11 9 10 8 6 5 5 7 9 7 4 3 3 3 5 5 5 4 6
3 7 6 3 6 9 4 1 13 19 11 13 19 9 -1 2 5 5 7 7 7 6 5 5 5 6 7 5 4 6 8 7 5 7 5 4 5 5 6 4 5 7 5 6 7 6 7 7 7 8 8 7 6 7 7 8 9 9 7 8 9 9 9 9 9 9 10 11 11 13 13 12 13 14 15 14 12 10 9 8 8 6 5 5 7 9 8 5 3 2 3 5 5 5 5 5 7
3 5 7 2 8 10 3 3 11 18 16 14 19 11 1 3 1 3 12 11 8 8 4 4 6 5 5 5 5 6 8 5 4 7 6 5 4 4 6 5 6 8 5 5 8 8 7 6 8 7 6 6 7 8 7 5 6 9 10 7 9 10 8 7 8 7 7 9 10 11 13 12 11 12 12 11 11 10 8 7 6 5 4 7 10 9 6 3 2 3 4 6 5 4 5 6 8
3 3 6 1 7 9 3 6 9 17 14 5 15 15 1 1 2 6 10 3 5 11 5 3 6 6 5 4 4 6 6 5 6 7 6 5 3 4 6 5 7 8 7 6 8 8 4 4 8 7 6 8 9 9 8 7 6 9 9 7 9 11 8 7 7 7 7 8 9 9 11 13 12 11 11 11 10 8 7 5 4 4 6 9 10 7 4 3 2 3 5 6 6 5 4 6 8
1 3 7 2 5 10 7 4 5 10 11 14 24 17 1 2 7 8 3 -0 7 11 6 4 6 7 4 4 4 5 6 4 7 7 5 5 3 4 5 5 7 8 8 7 7 5 3 6 7 6 7 8 9 9 8 8 8 8 8 9 10 10 9 7 7 7 8 9 10 10 9 11 13 10 10 10 8 7 5 3 2 4 8 10 9 4 3 3 3 4 5 5 6 6 5 5 7
3 4 7 2 1 10 9 2 2 2 15 32 24 7 1 2 5 5 4 9 11 8 7 7 7 7 4 5 4 4 6 4 7 8 4 5 3 3 5 5 6 8 8 7 6 4 5 8 6 4 7 9 8 7 7 8 9 8 9 10 10 10 10 8 8 7 9 10 11 12 10 11 12 11 10 9 8 6 2 2 4 6 10 9 5 3 3 4 5 5 6 6 6 5 4 6 7
6 6 7 4 1 8 4 6 13 5 21 36 16 2 2 2 5 4 5 7 4 5 8 7 9 8 5 6 6 5 5 4 6 7 5 5 3 4 6 6 6 7 8 7 6 5 6 6 4 5 8 8 8 6 7 8 8 8 9 10 9 11 11 10 9 9 8 9 10 12 12 13 13 12 11 9 7 5 3 6 8 7 8 6 4 4 4 5 4 4 6 7 8 7 5 6 6
6 3 6 5 4 7 -2 12 24 8 20 31 12 4 -1 1 8 3 5 3 -1 9 11 7 8 7 6 8 6 6 6 3 4 5 6 5 3 4 6 7 7 6 7 7 6 6 7 6 3 7 8 7 8 8 7 7 7 8 9 10 9 10 11 10 11 11 8 8 9 8 10 12 12 11 9 7 5 5 7 9 9 6 5 4 3 4 4 5 5 5 6 6 9 8 5 6 6
8 3 6 6 7 7 -1 15 22 4 18 25 9 6 1 4 7 0 5 5 4 13 13 8 8 7 6 9 7 6 7 3 3 5 6 6 4 3 6 9 6 5 7 7 7 6 7 8 7 8 8 7 8 8 7 7 7 8 9 9 9 10 10 11 11 11 9 8 8 7 8 8 7 8 7 6 7 8 9 8 6 5 5 5 5 4 4 5 5 5 6 6 9 10 6 4 5
7 6 6 6 5 5 3 11 15 14 24 16 4 7 4 2 3 2 3 3 7 14 13 8 7 7 5 7 8 6 6 4 5 7 6 6 5 3 5 8 6 5 7 6 6 7 7 8 8 9 8 7 8 9 8 9 10 9 9 9 9 9 10 11 12 11 10 8 7 7 8 9 7 8 8 8 8 8 7 5 4 4 4 5 4 4 5 5 6 7 8 7 7 9 7 5 6
7 6 3 6 1 0 7 8 11 29 31 10 3 6 3 1 1 6 4 1 9 13 11 7 7 8 4 6 8 6 7 5 5 8 7 6 6 5 4 7 7 6 6 6 6 6 7 8 8 8 7 7 8 9 9 10 10 10 10 9 9 9 10 11 12 11 9 8 8 7 8 11 12 10 9 7 6 6 5 5 5 3 4 5 4 5 5 6 7 7 9 8 8 9 8 7 8
5 6 5 7 4 -2 4 7 7 21 23 10 6 2 1 7 7 8 4 1 9 13 10 7 7 6 5 6 6 6 6 5 6 7 7 6 6 6 4 5 7 6 6 5 5 6 6 8 8 8 6 6 7 8 10 10 10 11 11 10 9 9 10 10 11 10 9 9 9 9 10 9 10 10 8 7 5 5 4 4 4 4 4 4 4 5 5 6 6 7 9 10 11 9 8 7 8
2 8 9 3 5 2 -2 4 5 7 10 8 7 7 7 6 5 8 6 2 7 13 10 7 7 4 5 6 5 6 6 5 6 6 8 6 5 7 6 6 6 6 7 5 6 6 5 6 7 9 8 6 6 7 9 9 10 12 12 11 10 11 12 12 12 11 11 10 10 10 11 9 8 8 6 4 4 4 4 3 4 5 5 4 4 4 4 4 6 7 9 10 10 9 8 7 7
4 9 11 0 1 4 -0 1 4 6 8 5 5 13 16 8 4 5 7 6 6 11 10 7 7 5 4 5 5 6 6 6 5 6 8 6 5 6 6 6 6 5 7 6 5 6 5 5 5 9 10 8 7 7 8 9 10 11 11 11 11 11 12 13 12 11 10 8 8 8 7 6 6 5 4 3 3 3 4 4 4 4 4 4 4 5 5 5 6 8 7 8 9 10 9 6 5
7 9 10 5 1 -1 4 6 2 6 8 4 5 9 14 14 10 7 9 10 7 8 10 7 7 7 4 2 4 5 6 6 5 6 8 6 5 5 6 7 6 5 6 6 6 6 6 5 5 7 9 8 8 8 7 7 10 10 9 8 9 10 10 10 9 8 6 4 5 5 5 4 3 4 3 4 5 4 4 5 5 6 5 5 5 6 7 6 7 7 6 8 11 11 8 5 8
-0 9 8 9 11 -2 3 10 -4 -3 7 7 7 8 8 11 13 12 12 12 9 8 9 8 8 8 6 4 3 5 7 6 5 7 7 5 5 4 5 6 6 6 6 6 6 5 6 5 5 5 7 8 8 8 7 6 8 8 7 7 7 7 6 6 6 5 4 3 2 3 3 3 4 4 4 5 6 6 6 7 7 7 7 7 6 6 7 6 6 7 7 10 12 10 7 8 13
-5 4 2 4 16 5 3 10 -5 -2 21 19 9 11 9 6 12 17 16 13 10 8 8 8 7 7 7 7 6 6 7 5 5 8 7 5 5 5 5 6 6 7 6 7 7 6 6 4 4 5 6 8 8 8 7 6 6 6 6 6 5 5 5 4 4 4 3 2 2 2 2 3 4 4 5 5 7 7 7 6 8 8 8 8 8 9 8 7 6 8 10 11 11 10 10 10 11
7 2 -4 3 16 9 1 8 4 -1 16 23 12 11 9 5 9 12 16 15 8 6 7 6 5 6 8 8 8 9 7 5 4 6 7 5 4 4 5 6 5 6 6 6 6 6 6 5 4 5 5 7 8 8 8 7 5 5 5 4 3 3 5 4 3 3 3 3 3 3 3 4 4 4 5 5 6 8 7 6 8 8 8 9 10 10 10 9 8 8 11 12 9 9 11 10 8
13 2 -7 3 12 11 1 6 18 2 2 21 19 11 9 12 13 9 13 14 10 9 5 3 5 4 6 8 7 8 7 7 5 4 7 7 5 4 5 6 6 5 6 6 6 6 6 6 5 4 5 6 7 8 8 8 6 5 4 3 3 2 4 4 3 3 3 3 3 3 5 5 5 5 5 5 6 7 8 8 8 8 8 9 10 9 9 9 9 9 10 11 10 9 10 10 9
11 4 -10 -11 1 17 6 -6 12 11 5 17 18 15 14 15 14 10 15 18 15 15 5 -1 6 4 5 9 8 9 8 9 8 5 6 7 5 4 4 5 6 6 6 6 6 7 6 7 6 5 5 5 6 7 8 9 8 7 7 4 3 3 3 3 3 3 3 3 4 4 5 5 6 7 6 7 7 7 9 9 8 9 9 10 9 8 9 9 8 8 9 10 11 10 9 9 9
7 8 -4 -7 1 15 16 4 6 9 8 7 5 7 9 14 16 8 18 29 20 13 4 -3 3 5 4 7 8 9 10 11 9 6 8 9 5 5 4 5 6 6 6 5 6 7 7 7 7 6 5 5 6 6 7 8 7 7 8 7 6 5 5 5 3 4 3 4 6 6 6 6 6 7 7 8 7 7 9 9 9 10 10 10 9 7 7 9 8 8 10 10 11 10 10 8 7
10 16 5 15 16 -4 3 22 18 9 8 7 8 8 3 11 19 9 14 30 26 15 8 2 6 9 4 4 7 8 10 12 7 5 10 11 6 4 4 5 7 6 6 6 5 6 7 6 7 7 6 5 5 5 6 7 6 6 7 8 8 7 8 8 6 8 9 8 7 6 6 7 7 7 8 8 9 9 9 10 10 9 9 10 10 7 6 7 7 8 8 10 11 10 10 8 6
4 14 -4 12 28 -4 -12 7 10 12 13 8 10 13 7 3 8 14 16 17 18 19 15 10 11 14 9 3 3 4 8 9 5 8 14 13 8 5 4 6 8 6 5 7 6 5 6 7 7 7 7 6 5 6 6 6 6 4 5 8 9 8 8 8 9 10 10 10 8 7 6 7 8 8 8 9 10 10 9 10 10 9 9 9 8 8 7 6 6 8 8 10 11 11 11 9 7
-0 8 -7 6 26 8 -2 -4 -6 7 15 11 12 12 9 3 -2 8 17 12 9 9 7 6 6 10 19 15 3 -0 6 9 5 6 12 13 9 5 5 8 8 6 5 7 7 5 5 7 7 6 6 6 5 5 5 5 6 5 5 6 6 7 7 7 8 7 7 8 7 6 6 6 8 7 8 9 9 9 9 9 10 9 10 10 8 8 9 7 6 8 9 9 10 11 11 9 8
2 5 -3 5 15 12 14 7 -0 7 8 9 15 12 7 10 7 0 3 11 18 14 6 9 8 7 21 25 11 1 3 7 7 4 7 12 12 8 6 7 7 7 6 6 7 7 5 6 7 7 5 6 6 6 5 5 6 5 5 5 5 6 7 6 6 5 5 6 5 5 5 5 6 7 8 9 8 8 8 8 9 9 9 9 8 8 8 7 7 8 8 8 8 10 12 10 9
-5 4 6 4 5 13 20 17 15 12 10 16 20 14 3 6 19 12 -2 -1 11 16 10 11 11 6 14 22 16 10 6 5 6 5 5 7 11 10 8 8 9 7 6 6 8 8 7 5 7 8 6 5 6 6 5 6 6 5 4 4 4 5 7 7 6 5 5 5 5 6 6 5 7 7 7 8 8 7 7 8 8 9 9 7 8 9 7 5 6 6 6 7 8 9 11 11 10
-18 -16 2 6 4 12 12 20 29 2 -7 19 25 16 6 3 14 16 11 9 5 5 7 10 12 6 6 10 12 14 12 7 6 7 7 5 7 11 12 14 13 8 6 8 9 8 8 7 6 7 7 6 7 6 5 6 6 5 5 5 4 5 6 7 7 6 6 6 6 7 6 6 7 7 8 8 8 8 7 8 8 8 9 7 7 8 7 7 7 6 5 5 6 7 9 10 10
1 -17 -5 1 -2 3 1 14 32 -1 -20 12 24 14 8 7 11 8 7 13 11 7 8 12 15 12 10 7 6 8 7 6 6 6 7 5 4 6 8 12 14 11 10 9 10 9 8 8 8 7 7 6 7 6 5 6 6 4 5 5 4 6 6 5 6 7 7 6 6 7 7 6 7 7 8 8 8 8 7 8 8 8 8 8 7 7 7 8 7 6 6 5 4 5 6 7 8
15 -5 -0 8 -3 -7 2 11 18 7 0 15 18 10 5 7 16 16 5 4 9 10 4 2 9 15 15 11 7 5 3 6 8 8 8 8 6 3 0 7 12 11 9 7 8 11 8 8 8 7 7 6 6 7 6 6 6 5 5 5 4 6 6 4 5 7 7 6 6 8 7 6 7 7 7 9 8 8 8 8 8 8 8 8 7 7 7 6 5 6 7 6 5 5 5 6 7
1 -8 -8 14 18 -3 -4 3 0 4 11 8 2 3 3 -1 3 10 8 3 4 7 4 1 7 15 19 16 10 7 5 5 7 9 10 9 7 5 -0 3 10 9 5 5 7 10 9 8 8 8 8 7 5 6 7 7 7 5 4 5 5 5 6 7 7 6 5 6 6 7 6 6 7 7 7 9 9 8 8 7 7 7 7 8 8 7 8 6 6 7 7 6 6 5 5 5 5
2 12 -3 0 22 9 -3 4 -0 1 11 7 1 3 3 -2 -3 2 1 -3 -2 3 7 5 4 12 23 20 13 12 11 7 6 8 10 8 4 7 9 6 6 7 7 8 7 8 8 7 7 8 8 9 8 6 6 7 8 7 4 4 5 4 5 6 5 4 6 8 7 5 5 6 7 5 6 8 8 9 9 8 7 7 7 7 7 7 8 8 7 8 7 5 6 6 5 6 5
2 18 12 -2 7 7 6 12 1 1 15 13 6 6 5 3 4 4 -2 -7 -2 5 6 6 5 7 15 16 10 9 11 11 8 5 9 12 4 3 12 9 2 5 9 11 10 9 9 6 5 6 4 6 9 8 6 6 7 9 6 4 4 4 4 5 3 4 6 7 6 5 6 6 5 5 6 7 6 7 8 8 7 7 8 7 7 7 7 8 7 7 8 7 7 8 7 7 6
10 9 14 13 9 0 -0 3 -1 7 20 16 12 8 3 4 4 5 4 -0 7 12 6 6 10 6 6 13 11 6 8 12 12 9 8 13 9 4 10 11 5 4 6 7 11 11 10 8 6 6 4 3 6 7 8 7 5 7 8 7 6 5 4 3 3 4 5 5 5 6 6 5 5 6 7 6 5 6 7 8 8 9 8 7 6 7 6 6 7 6 7 8 7 8 8 7 8
8 -2 7 25 27 14 1 -9 -12 -1 2 5 21 18 4 3 -1 1 11 9 14 21 12 7 12 8 5 11 12 8 10 14 15 14 10 8 11 11 13 13 6 5 5 5 10 11 12 12 10 8 7 5 3 4 9 11 7 5 6 7 7 7 6 5 4 4 5 5 5 5 6 6 6 7 8 7 6 6 6 6 9 10 10 8 6 6 6 6 7 6 6 7 6 7 8 7 8
9 -6 1 18 24 26 24 6 -13 -6 -1 -3 12 18 15 14 -1 -9 4 6 8 16 14 14 15 14 15 15 12 11 15 15 13 12 9 12 18 15 12 10 2 3 9 8 7 9 11 13 12 10 11 10 7 5 6 10 10 8 6 6 6 7 7 7 6 5 5 6 5 6 7 6 6 7 7 7 7 7 6 5 6 8 10 9 6 6 7 6 6 5 5 6 6 7 9 8 8
17 5 2 8 5 12 33 24 -11 -11 7 2 -2 4 12 18 9 3 7 8 10 10 10 16 15 11 14 12 10 12 14 14 14 10 5 12 23 20 14 9 -1 2 9 6 4 7 8 10 12 11 11 13 14 10 8 8 8 9 9 7 6 6 6 7 7 6 6 7 7 7 6 5 6 7 7 8 7 6 7 6 6 7 9 10 8 6 7 7 6 6 5 5 6 6 7 7 7
15 3 -0 13 11 5 23 30 7 2 14 3 -6 2 7 6 9 18 17 12 16 14 5 7 11 12 13 10 9 10 9 11 14 9 2 6 16 18 15 9 1 4 6 2 5 6 3 6 10 8 8 11 13 12 10 9 8 9 11 10 8 6 6 6 6 8 8 7 7 7 5 5 5 5 6 7 8 7 7 6 6 6 6 8 9 9 9 9 8 6 5 6 6 6 6 6 6
Height
5903 5903 5903 5903 5903 5903 5903 5903 5903 5904 5904 5904 5905 5904 5903 5903 5903 5904 5905 5905 5905 5905 5904 5903 5903 5903 5902 5902 5902 5902 5902 5902 5902 5902 5902 5903 5903 5903 5903 5903 5903 5904 5905 5906 5908 5908 5908 5909 5909 5909 5910 5909 5909 5908 5909 5910 5910 5911 5911 5911 5912 5912 5912 5912 5913 5913 5915 5916 5916 5916 5916 5917 5917 5918 5919 5920 5920 5920 5921 5921 5921 5921 5922 5922 5922 5923 5924 5924 5924 5924 5924 5924 5924 5924 5924 5924 5924
5904 5904 5904 5904 5903 5903 5904 5904 5904 5904 5905 5905 5904 5905 5905 5905 5905 5905 5906 5906 5906 5906 5905 5904 5904 5904 5903 5903 5903 5902 5903 5903 5903 5903 5903 5903 5904 5903 5903 5903 5903 5904 5905 5906 5908 5909 5909 5909 5909 5910 5910 5910 5909 5909 5910 5910 5911 5912 5912 5912 5913 5913 5913 5913 5913 5914 5916 5916 5916 5916 5916 5917 5918 5918 5919 5919 5920 5921 5921 5921 5922 5922 5922 5923 5923 5924 5925 5925 5925 5925 5926 5926 5925 5925 5925 5925 5925
5904 5904 5904 5904 5904 5904 5904 5905 5904 5905 5905 5905 5905 5905 5905 5906 5906 5906 5907 5907 5906 5906 5906 5905 5906 5905 5904 5904 5904 5903 5903 5904 5904 5903 5904 5904 5904 5903 5904 5904 5904 5904 5906 5907 5908 5909 5910 5910 5910 5910 5910 5910 5910 5910 5911 5911 5912 5913 5913 5913 5913 5914 5914 5914 5914 5915 5916 5916 5916 5915 5916 5917 5918 5918 5919 5919 5920 5921 5921 5922 5922 5922 5923 5923 5924 5925 5925 5925 5926 5926 5926 5926 5926 5926 5925 5926 5926
5904 5904 5904 5904 5903 5903 5905 5905 5905 5905 5905 5906 5906 5906 5905 5906 5907 5907 5908 5908 5907 5907 5906 5907 5907 5906 5905 5904 5904 5904 5904 5905 5904 5904 5904 5905 5904 5904 5904 5904 5904 5905 5906 5907 5908 5909 5910 5910 5910 5910 5910 5910 5911 5911 5912 5913 5914 5914 5914 5914 5914 5915 5915 5915 5915 5915 5916 5916 5916 5915 5916 5917 5918 5918 5918 5919 5920 5921 5921 5922 5922 5923 5923 5924 5924 5925 5926 5926 5926 5927 5927 5927 5927 5927 5926 5927 5927
5904 5905 5905 5904 5903 5903 5904 5905 5905 5906 5906 5907 5907 5906 5906 5906 5907 5908 5908 5908 5908 5907 5907 5907 5908 5907 5906 5905 5905 5904 5905 5906 5906 5905 5904 5906 5905 5904 5905 5905 5905 5906 5907 5908 5909 5910 5911 5911 5911 5911 5911 5911 5912 5913 5913 5914 5914 5915 5915 5914 5914 5915 5915 5915 5915 5915 5915 5915 5915 5915 5916 5917 5918 5918 5919 5919 5920 5921 5921 5922 5923 5923 5924 5924 5925 5926 5926 5926 5927 5927 5928 5928 5928 5928 5928 5928 5928
5905 5905 5905 5905 5904 5903 5903 5905 5905 5905 5906 5907 5906 5906 5906 5907 5908 5908 5909 5909 5908 5908 5908 5908 5908 5908 5907 5906 5906 5905 5905 5906 5906 5906 5905 5906 5906 5905 5905 5906 5906 5907 5908 5909 5910 5911 5911 5912 5911 5912 5912 5913 5913 5914 5914 5914 5914 5914 5914 5914 5914 5914 5914 5914 5914 5914 5915 5915 5915 5915 5915 5916 5917 5918 5919 5920 5920 5921 5921 5922 5923 5924 5924 5925 5926 5926 5927 5927 5928 5928 5928 5929 5929 5929 5929 5929 5929
5905 5904 5904 5905 5905 5903 5902 5903 5904 5905 5905 5906 5906 5907 5907 5907 5908 5909 5909 5909 5909 5909 5909 5909 5909 5909 5908 5907 5907 5906 5905 5906 5906 5906 5906 5906 5906 5906 5906 5907 5907 5908 5909 5910 5911 5912 5912 5912 5912 5913 5913 5914 5914 5914 5913 5913 5913 5913 5913 5913 5913 5913 5913 5912 5913 5914 5914 5914 5914 5915 5915 5916 5917 5918 5919 5920 5920 5921 5922 5923 5923 5924 5925 5925 5926 5927 5927 5928 5928 5929 5929 5929 5930 5930 5931 5930 5930
5905 5904 5904 5904 5904 5903 5903 5902 5904 5905 5905 5905 5906 5907 5907 5908 5909 5909 5910 5910 5910 5909 5909 5910 5910 5909 5909 5908 5907 5907 5906 5906 5906 5907 5906 5907 5907 5907 5907 5908 5908 5909 5910 5911 5912 5912 5912 5912 5913 5913 5913 5913 5913 5913 5912 5912 5912 5912 5912 5912 5912 5912 5912 5912 5912 5913 5913 5914 5914 5914 5915 5916 5917 5918 5919 5919 5920 5921 5922 5923 5923 5924 5925 5926 5927 5927 5928 5929 5929 5929 5929 5929 5931 5932 5932 5932 5932
5905 5904 5904 5904 5903 5904 5903 5902 5903 5904 5905 5906 5907 5907 5907 5908 5909 5909 5910 5910 5910 5910 5910 5910 5910 5909 5909 5909 5908 5907 5906 5906 5906 5907 5907 5907 5908 5908 5908 5909 5909 5910 5911 5911 5912 5912 5912 5913 5913 5913 5913 5913 5913 5912 5912 5912 5912 5911 5911 5911 5911 5912 5912 5912 5912 5912 5913 5913 5913 5913 5913 5914 5916 5917 5918 5919 5919 5920 5922 5923 5924 5925 5925 5926 5927 5928 5929 5929 5930 5930 5930 5930 5932 5933 5933 5933 5933
5906 5906 5905 5905 5903 5904 5903 5902 5903 5904 5905 5906 5907 5907 5908 5909 5909 5910 5910 5910 5910 5910 5911 5911 5911 5910 5910 5910 5909 5908 5906 5906 5906 5907 5908 5908 5909 5909 5909 5909 5910 5910 5911 5912 5912 5912 5912 5913 5913 5913 5913 5913 5913 5913 5913 5912 5912 5912 5911 5911 5911 5912 5912 5912 5912 5912 5912 5913 5913 5913 5914 5915 5916 5916 5917 5918 5919 5920 5922 5923 5924 5925 5926 5926 5927 5928 5929 5930 5930 5930 5930 5931 5932 5934 5934 5934 5934
5906 5906 5906 5906 5904 5904 5903 5902 5902 5903 5905 5906 5907 5908 5908 5909 5909 5910 5911 5911 5911 5911 5911 5911 5911 5911 5911 5911 5910 5909 5907 5907 5907 5908 5909 5909 5910 5910 5910 5910 5910 5911 5911 5912 5912 5911 5912 5912 5913 5913 5913 5913 5913 5913 5913 5912 5912 5912 5912 5912 5912 5912 5912 5912 5912 5912 5912 5912 5913 5914 5916 5917 5917 5917 5918 5919 5919 5920 5921 5923 5923 5924 5925 5926 5927 5929 5930 5930 5930 5931 5931 5932 5933 5935 5935 5935 5935
5906 5907 5907 5906 5905 5904 5903 5903 5903 5903 5905 5907 5908 5908 5908 5909 5910 5910 5911 5911 5912 5912 5912 5912 5911 5911 5911 5911 5911 5910 5908 5907 5908 5908 5910 5911 5911 5911 5911 5911 5911 5912 5912 5912 5912 5912 5912 5913 5913 5913 5913 5914 5914 5914 5913 5913 5913 5913 5912 5912 5913 5913 5913 5912 5912 5912 5912 5912 5913 5914 5915 5916 5917 5918 5919 5920 5920 5920 5921 5922 5923 5924 5925 5927 5928 5929 5930 5931 5931 5931 5932 5933 5935 5936 5936 5936 5936
5906 5906 5906 5905 5905 5904 5903 5904 5903 5903 5905 5906 5908 5908 5908 5910 5911 5911 5911 5912 5912 5912 5912 5912 5912 5912 5912 5912 5912 5911 5909 5908 5908 5909 5911 5912 5912 5912 5912 5912 5912 5912 5913 5913 5913 5913 5913 5914 5914 5914 5914 5914 5915 5914 5914 5914 5913 5913 5913 5913 5913 5913 5913 5913 5913 5913 5911 5911 5913 5914 5914 5914 5916 5917 5918 5919 5920 5920 5921 5922 5923 5924 5925 5927 5928 5930 5931 5931 5932 5933 5933 5934 5936 5937 5938 5938 5938
5906 5906 5906 5905 5905 5904 5903 5904 5903 5904 5905 5905 5907 5909 5909 5911 5912 5912 5912 5912 5912 5913 5913 5913 5913 5913 5913 5913 5912 5911 5910 5909 5909 5910 5912 5913 5913 5914 5914 5913 5914 5914 5914 5914 5914 5914 5914 5915 5915 5915 5915 5915 5916 5915 5915 5914 5914 5914 5914 5913 5913 5913 5913 5913 5914 5913 5912 5912 5912 5913 5913 5914 5915 5916 5917 5918 5919 5920 5921 5922 5923 5924 5926 5927 5929 5931 5931 5932 5933 5934 5934 5935 5937 5938 5939 5939 5939
5906 5906 5906 5906 5905 5905 5905 5905 5905 5905 5905 5906 5907 5908 5910 5911 5912 5912 5912 5913 5913 5913 5913 5913 5914 5913 5913 5913 5913 5912 5911 5911 5910 5911 5913 5914 5915 5915 5915 5914 5915 5915 5915 5915 5915 5915 5915 5916 5916 5916 5916 5916 5917 5916 5916 5915 5915 5915 5914 5914 5913 5913 5913 5913 5914 5913 5912 5913 5912 5913 5913 5914 5915 5915 5916 5917 5918 5920 5921 5922 5923 5925 5926 5928 5930 5931 5932 5933 5934 5935 5936 5937 5938 5939 5940 5940 5940
5905 5906 5905 5906 5905 5905 5905 5905 5905 5904 5905 5906 5907 5908 5910 5912 5912 5913 5913 5913 5913 5913 5914 5914 5914 5915 5914 5914 5914 5913 5912 5912 5911 5913 5914 5915 5916 5916 5915 5915 5916 5916 5916 5916 5916 5916 5916 5917 5918 5918 5917 5917 5917 5917 5917 5916 5916 5915 5915 5914 5913 5913 5913 5914 5914 5913 5912 5913 5913 5913 5913 5914 5915 5916 5916 5917 5918 5920 5921 5922 5924 5925 5927 5928 5930 5932 5933 5933 5935 5936 5937 5938 5939 5940 5941 5941 5941
5904 5905 5905 5906 5906 5905 5905 5905 5905 5905 5904 5906 5907 5908 5909 5911 5912 5914 5913 5914 5914 5913 5914 5915 5915 5915 5915 5915 5915 5914 5914 5913 5912 5914 5915 5916 5917 5917 5916 5916 5917 5917 5917 5917 5917 5917 5917 5918 5919 5918 5918 5918 5918 5918 5918 5917 5916 5916 5915 5915 5914 5914 5913 5914 5914 5913 5913 5913 5913 5913 5914 5914 5915 5916 5917 5917 5918 5920 5921 5923 5924 5926 5928 5929 5931 5932 5933 5934 5936 5937 5938 5939 5940 5941 5941 5942 5942
5904 5904 5905 5907 5906 5905 5905 5906 5906 5905 5904 5905 5906 5907 5909 5911 5912 5913 5913 5914 5914 5914 5915 5916 5916 5916 5916 5916 5916 5916 5915 5914 5913 5914 5916 5917 5919 5919 5918 5917 5918 5918 5918 5918 5918 5918 5918 5919 5919 5919 5919 5918 5918 5918 5918 5917 5917 5916 5916 5916 5916 5915 5914 5914 5914 5914 5913 5913 5914 5914 5914 5915 5916 5916 5917 5918 5919 5920 5922 5924 5925 5927 5929 5930 5931 5932 5933 5935 5937 5938 5939 5940 5941 5942 5942 5943 5943
5905 5904 5905 5907 5906 5905 5906 5906 5906 5906 5905 5905 5906 5907 5909 5911 5911 5913 5913 5913 5914 5915 5916 5916 5916 5917 5917 5917 5917 5917 5916 5915 5914 5915 5916 5918 5919 5920 5919 5918 5918 5920 5919 5919 5919 5919 5920 5920 5920 5919 5919 5919 5919 5919 5919 5918 5918 5917 5917 5917 5917 5916 5915 5915 5915 5914 5914 5914 5914 5914 5915 5915 5916 5917 5917 5918 5920 5921 5923 5925 5926 5928 5930 5931 5932 5933 5934 5936 5938 5939 5940 5941 5942 5943 5943 5944 5944
5904 5904 5905 5907 5906 5905 5906 5906 5906 5905 5904 5904 5906 5907 5909 5911 5911 5912 5913 5913 5914 5915 5916 5916 5917 5917 5917 5918 5918 5917 5917 5917 5916 5915 5917 5919 5920 5921 5921 5919 5918 5920 5920 5920 5920 5920 5921 5921 5921 5920 5920 5920 5920 5919 5919 5919 5918 5918 5918 5918 5918 5918 5917 5916 5916 5916 5915 5915 5915 5915 5915 5915 5916 5917 5918 5919 5920 5922 5924 5926 5928 5929 5931 5932 5933 5934 5936 5937 5939 5940 5941 5943 5944 5944 5944 5945 5946
5901 5902 5904 5906 5905 5905 5906 5905 5905 5905 5905 5905 5906 5907 5908 5910 5910 5911 5912 5913 5914 5915 5916 5917 5917 5918 5918 5918 5918 5918 5918 5918 5917 5916 5917 5919 5921 5922 5922 5921 5919 5921 5921 5921 5921 5921 5921 5922 5921 5921 5921 5920 5920 5920 5920 5920 5920 5919 5919 5919 5919 5919 5918 5918 5917 5917 5917 5916 5916 5916 5916 5916 5917 5918 5919 5920 5921 5923 5926 5928 5930 5931 5932 5933 5934 5936 5937 5938 5940 5941 5943 5944 5945 5945 5945 5946 5947
5900 5902 5904 5904 5904 5905 5905 5904 5904 5904 5905 5905 5905 5906 5907 5909 5910 5911 5912 5913 5914 5915 5916 5917 5918 5918 5918 5918 5919 5919 5919 5919 5919 5918 5918 5919 5921 5922 5923 5922 5921 5922 5922 5922 5922 5921 5922 5922 5922 5922 5921 5921 5920 5921 5921 5921 5921 5921 5921 5921 5920 5920 5920 5919 5919 5918 5918 5918 5917 5917 5917 5918 5918 5919 5921 5922 5923 5925 5927 5930 5932 5933 5934 5935 5936 5938 5939 5940 5941 5943 5944 5945 5946 5946 5946 5947 5948
5899 5902 5904 5903 5903 5905 5904 5904 5904 5904 5904 5904 5905 5906 5908 5909 5910 5910 5911 5913 5913 5914 5916 5917 5918 5918 5919 5919 5919 5920 5920 5920 5920 5919 5918 5919 5921 5922 5923 5923 5922 5922 5923 5923 5923 5922 5922 5923 5923 5923 5922 5922 5922 5922 5922 5922 5923 5922 5922 5922 5922 5922 5922 5921 5921 5920 5920 5919 5919 5919 5920 5920 5920 5921 5922 5924 5925 5927 5929 5931 5933 5935 5936 5937 5938 5939 5941 5941 5943 5944 5945 5946 5947 5947 5948 5948 5949
5899 5902 5902 5902 5902 5903 5904 5903 5903 5903 5903 5904 5905 5906 5908 5909 5909 5910 5911 5913 5914 5915 5916 5917 5918 5918 5919 5919 5920 5921 5921 5921 5921 5920 5919 5920 5921 5922 5923 5923 5923 5923 5923 5924 5923 5923 5923 5924 5924 5924 5924 5923 5923 5923 5923 5924 5924 5923 5923 5923 5923 5924 5923 5923 5923 5922 5922 5922 5922 5922 5922 5922 5922 5923 5925 5926 5928 5929 5931 5933 5935 5937 5938 5939 5940 5941 5942 5943 5944 5946 5947 5948 5948 5948 5949 5950 5950
5899 5901 5900 5901 5901 5902 5903 5903 5903 5903 5904 5905 5905 5906 5908 5908 5908 5909 5911 5912 5914 5915 5916 5917 5918 5918 5919 5920 5920 5921 5922 5922 5922 5921 5920 5920 5921 5922 5923 5924 5924 5924 5923 5924 5924 5924 5924 5924 5925 5926 5925 5925 5925 5924 5925 5925 5925 5925 5924 5924 5925 5925 5925 5925 5924 5924 5924 5924 5924 5925 5925 5925 5925 5926 5928 5929 5930 5932 5934 5935 5937 5938 5939 5941 5942 5943 5944 5945 5946 5947 5948 5949 5949 5950 5950 5951 5951
5899 5900 5900 5901 5902 5902 5903 5903 5902 5903 5904 5904 5904 5905 5907 5908 5908 5909 5910 5912 5914 5916 5916 5917 5918 5918 5919 5920 5921 5922 5922 5923 5923 5922 5921 5921 5922 5922 5923 5924 5925 5924 5924 5924 5925 5925 5925 5925 5926 5927 5927 5926 5926 5926 5926 5926 5926 5926 5926 5926 5926 5926 5926 5926 5926 5926 5926 5926 5926 5927 5928 5928 5929 5929 5931 5932 5933 5934 5936 5937 5939 5940 5941 5943 5944 5945 5946 5947 5948 5949 5949 5950 5950 5951 5952 5952 5952
5898 5898 5899 5900 5901 5902 5902 5902 5901 5901 5902 5903 5904 5904 5906 5907 5909 5909 5910 5912 5914 5915 5916 5917 5918 5919 5919 5920 5921 5922 5923 5923 5924 5923 5923 5922 5923 5923 5924 5925 5925 5926 5925 5925 5925 5926 5926 5926 5927 5928 5928 5928 5927 5926 5926 5927 5927 5927 5927 5928 5928 5927 5927 5927 5928 5928 5928 5928 5928 5929 5930 5931 5932 5933 5934 5935 5936 5937 5938 5939 5940 5941 5943 5945 5946 5947 5948 5949 5949 5950 5951 5951 5952 5953 5953 5953 5953
5896 5897 5898 5899 5900 5901 5901 5900 5900 5900 5901 5902 5903 5904 5905 5907 5908 5909 5910 5912 5913 5915 5916 5917 5918 5919 5919 5921 5921 5922 5923 5924 5924 5924 5924 5923 5924 5924 5925 5926 5927 5927 5927 5926 5926 5926 5926 5927 5927 5928 5929 5929 5928 5927 5927 5928 5928 5929 5929 5929 5929 5929 5929 5929 5929 5930 5930 5930 5930 5931 5932 5933 5934 5935 5936 5938 5939 5940 5941 5942 5943 5943 5945 5946 5947 5948 5949 5950 5951 5951 5952 5953 5954 5954 5954 5954 5954
5895 5896 5897 5898 5900 5900 5900 5899 5899 5899 5899 5900 5902 5903 5905 5906 5907 5908 5910 5911 5913 5914 5915 5916 5918 5919 5919 5920 5921 5922 5923 5924 5925 5925 5925 5924 5924 5924 5925 5926 5927 5928 5928 5927 5927 5927 5927 5927 5927 5928 5929 5929 5929 5929 5929 5929 5929 5930 5930 5930 5930 5930 5930 5931 5931 5932 5932 5932 5932 5933 5934 5935 5937 5938 5939 5940 5941 5942 5943 5944 5945 5946 5947 5948 5949 5949 5950 5951 5951 5952 5953 5954 5955 5955 5955 5955 5955
5893 5895 5896 5897 5899 5900 5900 5899 5898 5899 5898 5899 5901 5902 5904 5905 5906 5908 5909 5910 5912 5914 5915 5916 5917 5918 5919 5920 5921 5922 5923 5923 5924 5925 5925 5925 5925 5925 5926 5926 5927 5928 5929 5929 5929 5928 5928 5928 5928 5929 5929 5929 5930 5930 5930 5930 5931 5931 5931 5932 5932 5932 5932 5932 5933 5934 5934 5934 5935 5935 5936 5937 5939 5940 5941 5942 5943 5944 5945 5946 5947 5948 5949 5949 5950 5951 5951 5952 5952 5953 5954 5954 5955 5955 5956 5956 5956
5892 5894 5896 5897 5898 5898 5899 5899 5899 5899 5899 5900 5901 5903 5904 5905 5906 5907 5908 5910 5911 5913 5914 5916 5917 5918 5919 5920 5921 5922 5923 5923 5924 5925 5926 5926 5926 5926 5926 5927 5927 5928 5929 5930 5931 5931 5930 5930 5930 5930 5930 5930 5931 5931 5932 5932 5932 5932 5932 5933 5933 5933 5934 5934 5934 5935 5936 5936 5937 5937 5938 5940 5941 5942 5943 5944 5945 5946 5947 5948 5949 5949 5950 5951 5951 5952 5952 5953 5953 5954 5954 5955 5955 5956 5956 5956 5957
5892 5893 5895 5896 5897 5897 5898 5899 5899 5899 5899 5900 5901 5902 5904 5905 5906 5907 5908 5909 5910 5912 5913 5915 5916 5917 5919 5920 5921 5921 5922 5923 5924 5925 5926 5926 5926 5926 5926 5927 5928 5928 5929 5931 5932 5932 5932 5932 5931 5931 5931 5931 5932 5932 5933 5934 5934 5934 5934 5934 5934 5935 5935 5936 5936 5937 5937 5938 5939 5939 5940 5942 5943 5944 5945 5945 5947 5948 5949 5950 5950 5951 5951 5952 5952 5953 5953 5954 5954 5954 5955 5955 5955 5956 5957 5957 5958
5890 5892 5893 5894 5895 5895 5897 5898 5899 5899 5900 5900 5901 5902 5904 5905 5906 5906 5907 5908 5910 5911 5913 5914 5915 5917 5918 5919 5920 5921 5922 5923 5924 5925 5926 5926 5927 5927 5927 5927 5928 5929 5930 5931 5932 5933 5933 5934 5933 5932 5932 5933 5933 5934 5935 5935 5936 5936 5936 5936 5936 5937 5937 5937 5938 5938 5939 5940 5941 5942 5943 5944 5944 5946 5947 5948 5949 5950 5951 5952 5952 5952 5953 5953 5953 5954 5954 5954 5955 5955 5955 5956 5956 5957 5957 5958 5958
5890 5890 5890 5893 5894 5895 5896 5897 5898 5898 5899 5901 5901 5902 5903 5904 5905 5906 5907 5908 5909 5910 5912 5913 5915 5916 5918 5919 5920 5921 5922 5923 5924 5925 5925 5926 5927 5927 5927 5928 5929 5929 5930 5931 5932 5933 5934 5935 5935 5935 5935 5934 5934 5935 5936 5937 5937 5937 5938 5938 5938 5938 5939 5940 5940 5940 5941 5942 5943 5944 5945 5946 5947 5948 5949 5949 5950 5951 5952 5953 5953 5953 5954 5954 5954 5954 5955 5955 5956 5956 5956 5956 5957 5957 5958 5959 5959
5889 5888 5889 5892 5893 5895 5896 5897 5898 5897 5898 5900 5900 5901 5902 5903 5904 5905 5906 5907 5908 5910 5911 5913 5914 5916 5917 5918 5920 5921 5922 5922 5923 5924 5925 5926 5927 5927 5928 5928 5929 5930 5930 5931 5932 5932 5933 5934 5935 5936 5937 5937 5936 5936 5937 5938 5938 5939 5939 5940 5940 5940 5941 5942 5942 5942 5943 5944 5945 5946 5946 5947 5948 5949 5950 5951 5952 5952 5953 5954 5954 5954 5955 5955 5955 5955 5956 5956 5956 5956 5956 5956 5957 5958 5959 5960 5960
5887 5887 5888 5889 5891 5895 5895 5896 5896 5896 5897 5899 5900 5900 5901 5902 5903 5904 5905 5906 5907 5909 5910 5912 5913 5915 5917 5918 5919 5920 5921 5922 5923 5924 5925 5926 5927 5927 5928 5929 5929 5930 5930 5931 5932 5932 5933 5934 5935 5936 5937 5938 5938 5938 5939 5939 5940 5941 5941 5942 5942 5942 5943 5943 5944 5944 5945 5946 5946 5947 5948 5949 5950 5951 5952 5953 5953 5954 5954 5955 5955 5955 5955 5955 5956 5956 5956 5957 5957 5956 5957 5957 5958 5959 5960 5961 5961
5885 5884 5886 5887 5890 5894 5894 5894 5894 5895 5897 5898 5898 5899 5900 5901 5902 5903 5904 5905 5906 5908 5910 5911 5913 5914 5916 5917 5919 5920 5921 5922 5923 5924 5924 5926 5927 5927 5929 5929 5930 5930 5931 5931 5932 5933 5933 5934 5935 5937 5938 5939 5939 5940 5940 5940 5941 5942 5943 5943 5944 5944 5945 5945 5946 5946 5947 5948 5948 5949 5950 5951 5951 5952 5952 5953 5954 5955 5955 5955 5956 5956 5956 5956 5956 5956 5957 5957 5957 5957 5958 5958 5959 5960 5960 5961 5962
5883 5882 5885 5887 5889 5891 5891 5891 5892 5894 5896 5896 5896 5897 5899 5900 5900 5901 5902 5904 5905 5906 5908 5911 5912 5914 5915 5917 5918 5919 5920 5922 5923 5924 5925 5926 5927 5927 5929 5930 5930 5931 5932 5932 5933 5933 5934 5935 5936 5937 5938 5939 5940 5941 5942 5942 5943 5943 5944 5945 5945 5946 5947 5947 5948 5949 5949 5950 5950 5951 5951 5952 5952 5953 5953 5954 5955 5955 5955 5956 5956 5956 5956 5956 5957 5957 5957 5958 5958 5958 5959 5959 5960 5960 5960 5961 5962
5880 5880 5884 5886 5887 5888 5889 5890 5892 5893 5894 5894 5895 5896 5897 5898 5898 5899 5901 5902 5903 5904 5906 5909 5911 5912 5914 5916 5917 5918 5920 5921 5922 5923 5924 5925 5926 5927 5928 5930 5931 5932 5933 5933 5934 5934 5935 5936 5937 5938 5939 5940 5940 5941 5942 5943 5944 5945 5946 5946 5947 5948 5949 5949 5950 5951 5951 5951 5952 5952 5953 5953 5954 5954 5954 5954 5955 5956 5956 5956 5956 5956 5956 5957 5957 5958 5958 5959 5959 5959 5959 5960 5960 5960 5961 5961 5962
5878 5878 5883 5886 5887 5887 5887 5889 5892 5892 5893 5893 5894 5895 5896 5896 5896 5897 5898 5900 5901 5903 5905 5907 5909 5911 5913 5915 5916 5918 5919 5921 5922 5923 5924 5925 5926 5927 5928 5929 5931 5932 5933 5933 5934 5935 5935 5936 5937 5938 5939 5940 5941 5941 5942 5944 5945 5946 5947 5948 5948 5949 5950 5951 5951 5952 5952 5953 5953 5954 5954 5954 5954 5955 5955 5955 5955 5956 5956 5956 5957 5957 5957 5957 5958 5959 5959 5959 5959 5960 5960 5960 5960 5961 5962 5962 5963
5876 5878 5882 5886 5886 5886 5887 5888 5890 5891 5892 5892 5893 5894 5895 5895 5895 5896 5897 5899 5901 5903 5904 5905 5908 5910 5911 5914 5915 5917 5918 5920 5921 5922 5923 5925 5926 5927 5928 5929 5930 5932 5933 5934 5935 5935 5936 5937 5938 5939 5940 5941 5941 5942 5942 5944 5945 5947 5948 5949 5949 5950 5951 5952 5952 5953 5953 5954 5954 5955 5955 5955 5955 5955 5955 5955 5955 5956 5956 5957 5958 5958 5958 5958 5959 5959 5959 5959 5960 5960 5961 5961 5961 5961 5962 5962 5963
5876 5878 5882 5884 5885 5886 5887 5887 5887 5889 5891 5892 5892 5892 5893 5894 5894 5895 5896 5898 5900 5902 5903 5905 5907 5909 5910 5912 5914 5916 5917 5919 5920 5921 5923 5924 5925 5926 5927 5929 5930 5931 5933 5934 5935 5936 5936 5937 5938 5939 5940 5941 5942 5943 5943 5944 5945 5946 5947 5948 5949 5950 5951 5952 5953 5954 5954 5955 5955 5955 5956 5956 5956 5956 5956 5956 5956 5956 5957 5958 5958 5958 5958 5958 5959 5959 5960 5960 5961 5961 5962 5962 5962 5962 5962 5962 5963
5875 5878 5880 5882 5883 5885 5886 5886 5886 5887 5889 5890 5891 5892 5893 5893 5894 5894 5895 5896 5898 5900 5902 5904 5907 5908 5909 5911 5913 5915 5916 5918 5919 5920 5922 5924 5924 5925 5926 5928 5929 5931 5932 5934 5935 5936 5937 5938 5938 5939 5940 5941 5942 5943 5944 5944 5945 5946 5947 5948 5949 5950 5951 5952 5953 5954 5955 5955 5955 5956 5956 5957 5957 5957 5956 5956 5956 5957 5957 5958 5958 5958 5958 5959 5959 5959 5960 5961 5961 5962 5962 5963 5963 5963 5963 5963 5963
5874 5877 5878 5877 5879 5883 5884 5884 5885 5886 5888 5889 5890 5891 5892 5893 5894 5894 5894 5896 5897 5899 5901 5903 5905 5906 5908 5910 5912 5913 5915 5917 5918 5919 5921 5923 5924 5925 5926 5927 5929 5930 5932 5933 5935 5936 5937 5938 5938 5939 5940 5941 5942 5943 5944 5945 5945 5946 5947 5948 5949 5950 5951 5952 5953 5954 5955 5955 5956 5956 5957 5957 5957 5957 5957 5957 5957 5957 5957 5958 5958 5958 5959 5959 5959 5960 5960 5961 5962 5962 5963 5963 5963 5963 5964 5964 5964
5874 5876 5875 5874 5876 5880 5882 5883 5884 5885 5887 5888 5889 5890 5891 5892 5894 5894 5894 5896 5897 5898 5900 5902 5904 5905 5906 5908 5910 5912 5914 5915 5917 5918 5920 5922 5923 5924 5925 5926 5928 5929 5931 5933 5934 5936 5937 5938 5938 5939 5940 5941 5942 5943 5944 5945 5946 5946 5947 5948 5949 5950 5951 5952 5953 5954 5955 5956 5956 5957 5957 5957 5958 5958 5958 5957 5957 5957 5958 5958 5959 5959 5960 5960 5961 5961 5961 5962 5963 5963 5964 5964 5964 5964 5964 5965 5965
5873 5873 5873 5873 5877 5879 5880 5882 5882 5883 5886 5887 5888 5889 5890 5892 5893 5894 5895 5896 5897 5898 5900 5901 5902 5904 5905 5907 5909 5911 5913 5914 5916 5917 5918 5920 5921 5922 5924 5925 5927 5928 5930 5932 5933 5935 5936 5938 5939 5939 5940 5941 5942 5943 5943 5945 5946 5946 5947 5948 5949 5950 5951 5952 5953 5954 5955 5955 5956 5957 5957 5958 5958 5958 5958 5958 5958 5958 5958 5959 5959 5960 5960 5961 5961 5962 5962 5963 5963 5964 5964 5964 5965 5965 5965 5965 5965
5870 5872 5873 5873 5876 5878 5878 5880 5881 5883 5885 5886 5887 5889 5890 5891 5893 5894 5895 5896 5898 5899 5900 5901 5902 5903 5904 5906 5907 5909 5911 5913 5914 5916 5917 5919 5920 5921 5922 5924 5926 5927 5930 5931 5933 5934 5936 5937 5938 5939 5940 5941 5942 5943 5943 5944 5945 5946 5947 5948 5949 5950 5951 5952 5953 5954 5954 5955 5956 5957 5958 5958 5959 5959 5959 5959 5959 5959 5959 5959 5960 5960 5961 5962 5962 5963 5963 5963 5964 5964 5964 5964 5965 5965 5965 5965 5965
5867 5870 5872 5873 5875 5875 5876 5878 5880 5883 5886 5886 5887 5888 5890 5891 5892 5893 5895 5896 5898 5899 5900 5901 5901 5903 5904 5905 5906 5908 5910 5911 5913 5914 5916 5917 5919 5920 5921 5923 5924 5926 5928 5930 5932 5934 5935 5936 5938 5939 5940 5941 5942 5942 5943 5944 5945 5946 5947 5948 5949 5950 5951 5952 5953 5954 5955 5955 5956 5957 5958 5959 5959 5959 5959 5959 5959 5959 5960 5960 5960 5961 5961 5962 5962 5963 5963 5963 5964 5964 5964 5964 5965 5965 5965 5965 5965
5866 5869 5871 5873 5874 5874 5875 5877 5878 5882 5884 5884 5885 5886 5888 5890 5891 5892 5894 5895 5897 5898 5899 5900 5901 5902 5903 5904 5905 5907 5908 5910 5912 5913 5914 5916 5917 5919 5920 5921 5923 5925 5927 5929 5931 5932 5934 5935 5937 5939 5940 5941 5941 5942 5943 5944 5945 5946 5947 5948 5949 5950 5951 5952 5953 5954 5955 5955 5956 5957 5958 5958 5959 5959 5959 5959 5960 5960 5960 5960 5960 5961 5961 5962 5962 5963 5963 5963 5963 5963 5963 5964 5964 5964 5965 5965 5965
5864 5867 5869 5871 5872 5873 5876 5878 5879 5882 5884 5883 5882 5883 5886 5889 5890 5891 5892 5894 5895 5897 5898 5899 5900 5901 5902 5903 5904 5906 5907 5908 5910 5911 5913 5914 5915 5917 5918 5920 5922 5923 5926 5928 5929 5931 5933 5934 5936 5938 5939 5941 5941 5941 5942 5943 5945 5945 5947 5948 5949 5950 5951 5952 5953 5954 5955 5955 5956 5957 5957 5958 5959 5959 5959 5960 5960 5960 5960 5960 5960 5961 5961 5961 5962 5962 5962 5963 5963 5963 5963 5963 5964 5964 5964 5964 5965
5862 5864 5866 5868 5870 5872 5875 5878 5880 5883 5884 5883 5881 5880 5883 5886 5887 5889 5890 5892 5894 5895 5897 5898 5899 5899 5900 5901 5902 5904 5906 5907 5909 5910 5912 5913 5914 5915 5916 5918 5920 5922 5924 5927 5928 5930 5932 5933 5935 5937 5938 5940 5941 5941 5941 5943 5944 5945 5946 5947 5949 5950 5951 5952 5953 5953 5954 5955 5956 5956 5957 5958 5958 5959 5959 5959 5960 5960 5960 5960 5960 5960 5961 5961 5962 5962 5962 5962 5962 5962 5962 5963 5963 5963 5963 5964 5964
5860 5862 5863 5865 5869 5872 5874 5875 5877 5879 5881 5883 5881 5879 5880 5883 5885 5886 5888 5890 5892 5893 5895 5897 5897 5898 5899 5900 5902 5903 5904 5906 5907 5909 5910 5911 5912 5913 5915 5916 5918 5920 5923 5925 5927 5928 5930 5932 5933 5935 5937 5938 5940 5940 5941 5942 5943 5944 5945 5946 5948 5949 5950 5952 5952 5952 5953 5954 5955 5955 5956 5957 5957 5958 5958 5959 5959 5960 5959 5959 5960 5960 5961 5961 5961 5962 5962 5962 5962 5962 5962 5962 5962 5962 5963 5963 5963
5857 5860 5863 5865 5868 5871 5872 5874 5875 5877 5879 5881 5880 5879 5880 5882 5883 5885 5886 5889 5890 5892 5894 5895 5896 5897 5898 5899 5901 5902 5903 5904 5906 5907 5908 5909 5911 5912 5914 5916 5917 5919 5921 5924 5925 5926 5928 5930 5932 5933 5935 5936 5938 5939 5940 5941 5942 5943 5944 5945 5947 5948 5949 5951 5951 5952 5953 5954 5954 5955 5955 5956 5957 5957 5958 5958 5959 5959 5959 5959 5959 5960 5960 5961 5961 5961 5962 5962 5962 5962 5962 5962 5962 5962 5962 5963 5963
5854 5858 5862 5865 5868 5869 5870 5872 5874 5875 5878 5879 5878 5878 5879 5881 5883 5884 5886 5888 5890 5890 5891 5894 5896 5896 5897 5898 5900 5900 5901 5902 5904 5905 5906 5908 5909 5910 5913 5914 5916 5918 5919 5921 5923 5925 5926 5929 5930 5932 5933 5935 5936 5937 5938 5939 5940 5942 5943 5944 5945 5947 5948 5949 5950 5951 5952 5953 5953 5954 5955 5956 5956 5957 5957 5957 5958 5958 5958 5958 5959 5959 5960 5960 5961 5961 5961 5961 5961 5961 5962 5962 5962 5962 5962 5962 5962
5851 5854 5859 5862 5865 5867 5868 5870 5872 5874 5876 5878 5877 5877 5878 5881 5883 5884 5885 5887 5888 5889 5890 5892 5894 5895 5896 5897 5898 5898 5899 5901 5902 5903 5904 5906 5907 5908 5911 5913 5914 5916 5918 5919 5921 5923 5925 5927 5929 5930 5932 5933 5934 5936 5937 5938 5939 5940 5942 5943 5944 5945 5946 5948 5949 5950 5951 5951 5952 5953 5954 5955 5956 5956 5957 5957 5957 5958 5958 5958 5958 5959 5959 5960 5960 5960 5961 5961 5961 5961 5961 5961 5961 5961 5961 5961 5962
5850 5851 5854 5858 5861 5864 5866 5870 5872 5873 5875 5876 5875 5874 5876 5879 5882 5884 5885 5886 5887 5888 5889 5891 5892 5893 5894 5895 5896 5896 5898 5899 5901 5902 5903 5904 5905 5907 5910 5912 5912 5914 5916 5918 5919 5921 5923 5925 5927 5929 5930 5932 5933 5935 5936 5937 5937 5938 5940 5941 5942 5943 5945 5946 5947 5948 5949 5950 5950 5952 5953 5954 5954 5955 5956 5957 5957 5957 5957 5957 5957 5958 5958 5959 5959 5960 5960 5961 5961 5961 5961 5961 5961 5961 5961 5961 5961
5849 5851 5852 5855 5859 5862 5864 5867 5869 5871 5872 5873 5873 5871 5873 5877 5881 5883 5884 5885 5885 5885 5888 5889 5889 5890 5892 5894 5894 5895 5896 5897 5899 5900 5901 5903 5904 5905 5908 5910 5910 5912 5914 5916 5918 5919 5921 5923 5925 5927 5928 5930 5932 5933 5934 5935 5936 5937 5938 5939 5941 5942 5943 5945 5946 5947 5948 5949 5949 5951 5952 5952 5953 5954 5955 5956 5956 5956 5956 5956 5956 5957 5957 5958 5959 5959 5959 5960 5960 5960 5960 5961 5961 5961 5961 5961 5961
5847 5850 5852 5855 5858 5860 5863 5865 5867 5868 5870 5872 5872 5870 5871 5874 5878 5881 5882 5883 5883 5883 5885 5887 5888 5889 5890 5892 5893 5894 5894 5895 5897 5897 5898 5901 5903 5904 5906 5908 5909 5910 5912 5914 5915 5917 5918 5920 5922 5924 5925 5927 5929 5931 5932 5933 5934 5935 5936 5937 5939 5940 5941 5942 5944 5945 5946 5947 5948 5949 5950 5951 5952 5953 5953 5954 5954 5955 5955 5955 5955 5956 5956 5957 5958 5958 5959 5959 5959 5959 5959 5960 5960 5960 5960 5960 5960